Aeroporto :
LOGIN :

Iscrizione | Disclaimer

   EN    FR    IT 

 










Sommario :    VFR   VFR Marginale   IFR   IFR Intensivo   IFR Molto Intensivo
Visibilità : 
Base nubi : 
>= 8 km
>= 3000ft
5 / 8 km
1000 / 3000 ft
1500m / 5 km
500 / 1000 ft
800 / 1500m
200 / 500 ft
< 800m
< 200 ft
Simboli :   Temporali  Nebbia  Neve Forte  Precipitazioni Forti  Vento > 20 kt
SIGMETs :   Varie  Temporali  Ghiacco  Turbolenza  Onda orograficha  Ceneri Vulcaniche







- Altitudine del aeroporto : 370 ft


EBBE - Beauvechain AB

ULTIMO METAR :
  • 231525Z VRB02KT 9999 FEW050 BKN230 22/06 Q1017 BLU BLU

METARs OBSOLETI :
  • 231455Z 26006KT 9999 FEW050 BKN230 21/06 Q1017 BLU BLU
  • 231425Z 28005KT 9999 FEW050 BKN230 21/06 Q1017 BLU BLU
  • 231355Z 27004KT 9999 FEW050 BKN230 21/06 Q1018 BLU BLU
  • 231325Z 29006KT 9999 FEW043 BKN230 20/05 Q1018 BLU BLU
  • 231255Z 28008KT 9999 FEW043 BKN230 20/06 Q1018 BLU BLU

TAF TAF EBBE
Valido dal 23 a 13 ore il 23 a 22 ore UTC


231141Z 2313/2322 26008KT 9999 FEW030 SCT220
Nessun NOTAM noto per questo aeroporto.



MetMap, La meteo Aeronautica in un colpo d'occhio ! - Copyright ORBIFLY Dicembre 2007 - Disclaimer

ORBIFLY MET'MAP TEAM :

Programmazione e sviluppo : Alexandra Zaïnal
Concezione e sviluppo : Baudouin d'Aumeries
Co-Programmazione e sviluppo : Marc-Olivier Méhu
Supporto tecnico e logistico : Manuel Goepfert
Aiuto per la traduzione : Arnaldo La Scala

Contatto : metmap@orbifly.com




FONTI E CREDITI :

   NOAA